STARLINK-11300, 61243

Orbit data source: Space-Track

STARLINK-11300, 61243 is a payload satellite owned by SpaceX/Seattle (US) in LEO that was launched on Wed, 25 Sep 2024 UTC via an FALCON 9 launch vehicle from the Air Force Western Test Range (AFWTR). Payloads include a variety of satellites, spacecraft, and rockets equipped with specific instruments for various scientific and technological missions. These include communications satellites like Starlink; space stations such as the ISS; scientific satellites like the Hubble; Earth observation satellites from companies like Planet Labs, Umbra, and HawkEye 360; GPS; miniature CubeSats for education and research; and military/defense satellites.

Loading next visibility...
STARLINK-11300 details
Identifier
61243, 2024-175A
Orbit
LEO
Last TLE update12 hours ago
Origin
Flag of USSpaceX/Seattle (US)
ManufacturerSpaceX/Seattle
MissionOperational spacecraft
Bus & MotorSTARLINK V2M, Unknown motor
Mass730 kg wet, ~700 kg dry
Launch date (UTC)
2024-09-25 (2 months ago)
Launch vehicle
FALCON 9
Launch site
Air Force Western Test Range (AFWTR)
Object type
Payload
Rocket body
Debris
Shape & HBRUnknown
Radar Cross SectionLarge (>1 m²)

Expand to show TLE details & history

TLE from 12 hours ago
0 STARLINK-11300
1 61243U 24175A   24336.98862030  .00072932  00000-0  61009-3 0  9991
2 61243  53.1582 177.2514 0002404  35.3549 324.7628 15.69367120 11743
Epoch: 2024-12-01T23:43Z
Definitive object data (Epoch: 2024-12-01T23:43:36.793Z)
Latitude-0.00003°
Longitude110.02914°
Altitude360.3 km
Speed7.695 km/s
True Right ascension11h 49m 00s
True Declination0° 00' 00"
Sunlit
Object was in daylight at TLE epoch
Visualization TLE readout
Latitude38.12053°
Longitude143.24967°
Altitude362.114 km
Speed7.698 km/s
Apparent Right ascension17h 43m 49s
Apparent Declination0° 45' 17"
Sunlit
Object is in daylight
Visualization observer readout
Local Sidereal Time09:56:50
Azimuth71.496° E
Elevation-19.675°
Doppler factor1
Orbital elements
Apogee altitude362.589 km
Perigee altitude359.349 km
Semi-major axis6,739.106 km
Eccentricity0.0002404
Inclination53.1582°
RAAN177.2514°
Arg. of periapsis35.3549°
True anomaly324.7469°
Mean anomaly324.7628°
Eccentric anomaly324.75485°
Mean motion3.92319 °/min
BSTAR0.00061009
Orbital period91.76 mins
Loading maneuver chart data...
Loading historical data...
Loading historical data...
Loading historical data...
Loading historical data...
Loading historical data...
Loading historical data...
Loading historical data...

STARLINK-11300 Visibility forecast

Observer location: undefined°, undefined

Span
Click to sort rows by Start time (UTC) header in descending order
Start Az.
Max El. time (UTC)
Max El. Az.
Max El.
End time (UTC)
End Az.
4 mins2024-12-02 16:45:00.093Z255.961° W2024-12-02 16:47:00.093Z339.534° N35.478°2024-12-02 16:49:00.093Z35.572° NE
4 mins2024-12-02 23:10:00.093Z304.895° NW2024-12-02 23:12:00.093Z152.16° SSE40.645°2024-12-02 23:14:00.093Z135.666° SSE
|